Regional Weather Roundup
Issued by NWS Boston, MA

Home | Current Version | Previous Version | Text Only | Print | Product List | Glossary On
Versions: 1 2 3 4 5 6 7 8 9 10 11 12 13 14 15 16 17 18 19 20 21 22 23 24 25 26 27 28 29 30 31 32 33 34 35 36 37 38 39 40 41 42 43 44 45 46 47 48 49 50
000
ASUS41 KBOX 011210
RWRBOX

REGIONAL WEATHER ROUNDUP
NATIONAL WEATHER SERVICE TAUNTON MA
800 AM EDT SAT AUG 01 2015

NOTE:  "FAIR" INDICATES FEW OR NO CLOUDS BELOW 12,000 FEET WITH NO
SIGNIFICANT WEATHER AND/OR OBSTRUCTIONS TO VISIBILITY.  THE FOLLOWING
OBSERVATION LOCATIONS DO NOT REPORT PRESENT WEATHER...PROVINCETOWN...
SMITHFIELD...BLOCK ISLAND...KEENE...AND OXFORD.

MAZALL-011300-
EASTERN MASSACHUSETTS

CITY           SKY/WX    TMP DP  RH WIND       PRES   REMARKS
BOSTON         SUNNY     77  58  51 SW15G23   29.74F
6HR MIN TEMP:  68; 6HR MAX TEMP:  77;

BEVERLY        SUNNY     75  59  57 SW7       29.73F
LAWRENCE       SUNNY     72  60  66 SW5       29.76F
BEDFORD        SUNNY     73  59  61 SW9       29.74S
BLUE HILL        N/A     72  58  61 SW10      29.77R
NORWOOD        SUNNY     75  60  59 SW8       29.76S
MARSHFIELD     MOSUNNY   73  63  68 SW6       29.77S
PLYMOUTH       MOSUNNY   75  63  66 SW7       29.78R
TAUNTON        PTSUNNY   76  64  66 SW5       29.76S
NEW BEDFORD    MOSUNNY   74  65  73 SW10      29.76S
$$

MAZALL-011300-
CAPE COD AND THE ISLANDS

CITY           SKY/WX    TMP DP  RH WIND       PRES   REMARKS
FALMOUTH       MOSUNNY   77  68  73 SW7       29.78S
HYANNIS        SUNNY     78  67  68 SW9       29.77S
CHATHAM        SUNNY     76  71  85 S7        29.79R
PROVINCETOWN   MOSUNNY   75  63  64 SW12      29.77R
NANTUCKET      SUNNY     74  70  87 SW8       29.80R
MARTHAS VNYRD  SUNNY     75  67  76 SW6       29.79R
$$

MAZALL-011300-
CENTRAL AND WESTERN MASSACHUSETTS

CITY           SKY/WX    TMP DP  RH WIND       PRES   REMARKS
WORCESTER      SUNNY     70  58  65 W10       29.79S
6HR MIN TEMP:  64; 6HR MAX TEMP:  70;

FITCHBURG      SUNNY     75  59  57 W7        29.76R
ORANGE         SUNNY     65  60  84 CALM      29.78S
SPRINGFIELD    SUNNY     70  61  73 VRB1      29.77R
WESTFIELD      SUNNY     70  62  76 CALM      29.78R
NORTH ADAMS    CLOUDY    64  59  83 CALM      29.80R
PITTSFIELD     PTSUNNY   62  60  93 SE3       29.81S
$$

RIZALL-011300-
RHODE ISLAND

CITY           SKY/WX    TMP DP  RH WIND       PRES   REMARKS
PROVIDENCE     MOSUNNY   74  62  66 W9        29.77S
6HR MIN TEMP:  65; 6HR MAX TEMP:  75;

NEWPORT        CLOUDY    74  65  73 S6        29.78R
BLOCK ISLAND     N/A     75  66  73 SW10      29.80S
SMITHFIELD     SUNNY     72  64  78 CALM      29.78S
WESTERLY       SUNNY     75  68  78 SW5       29.79R
$$

CTZALL-011300-
CONNECTICUT

CITY           SKY/WX    TMP DP  RH WIND       PRES   REMARKS
BRADLEY INTL   MOSUNNY   73  61  65 SE5       29.76S
6HR MIN TEMP:  63; 6HR MAX TEMP:  73;

HARTFORD       SUNNY     75  63  66 S6        29.76S
BRIDGEPORT     SUNNY     78  63  59 SW8       29.78S
DANBURY        SUNNY     73  61  65 W8        29.82R
GROTON         SUNNY     75  68  78 W6        29.77S
NEW HAVEN      SUNNY     74  64  71 SW3       29.78S
CHESTER        NOT AVBL
MERIDEN        SUNNY     73  62  68 S5        29.78S
WILLIMANTIC    SUNNY     68  61  78 CALM      29.79R
OXFORD         MOSUNNY   72  61  68 CALM      29.81S
$$

MEZ002-015-021-024-NHZ003-005-008-011-012-014-VTZ005-008-011300-
NORTHERN NEW ENGLAND

CITY           SKY/WX    TMP DP  RH WIND       PRES   REMARKS
PORTLAND ME    MOSUNNY   70  60  70 S5        29.71F
6HR MIN TEMP:  60; 6HR MAX TEMP:  70;

BANGOR ME      MOSUNNY   69  60  73 SW6       29.71F
CONCORD NH     SUNNY     69  58  67 CALM      29.74S
MANCHESTER NH  MOSUNNY   70  59  68 VRB5      29.73R
NASHUA NH      SUNNY     71  61  70 CALM      29.75R
PORTSMOUTH NH  MOSUNNY   71  60  67 SW6       29.72F
JAFFREY NH     SUNNY     67  59  75 S5        29.79S
KEENE NH       SUNNY     64  55  72 CALM      29.78S
BURLINGTON VT  CLOUDY    69  60  73 S9        29.73R
MT. WASHINGTON FOG       46  46 100 W41G49      N/A  VSB 0
$$

NYZ052-076-011300-
EASTERN NEW YORK

CITY           SKY/WX    TMP DP  RH WIND       PRES   REMARKS
ALBANY         LGT RAIN  69  61  75 SE5       29.77F
6HR MIN TEMP:  64; 6HR MAX TEMP:  70; 6HR PCP: TRACE;

NEW YORK CITY  MOSUNNY   79  60  52 SW6       29.79S
6HR MIN TEMP:  77; 6HR MAX TEMP:  81;

$$

ANZALL-011300-
MARINE OBSERVATIONS

STATION/POSITION TIME  TEMP    WIND        PRES    VSBY  WAVE
                       AIR SEA DIR/SP/G                  HT/PER
                 (UTC) (F)     (DEG/KT/KT) (MB)    (MI)  (FT/S)
BOSTON BUOY      1150   72 70  230/  8/ 10 1007.8R         2/ 9
BUZZARDS BAY     1100          220/ 10/ 10 1009.0R
NANTUCKET SOUND  1150   74 73  220/ 10/ 12 1008.5R         1
MASS BAY-STELLWA 1104   70 67  230/  6/  6   N/A    1 7/8  1/ 8
ISLE OF SHOALS   1100   68     230/  9/ 10 1006.5R
S OF BLOCK IS    1108      74                N/A           4/ 9
$$

......................KEY.........................
  SKY/WX - SKY CONDITION/PRESENT WEATHER
  TMP    - TEMPERATURE IN FAHRENHEIT
  DWPT   - DEWPOINT IN FAHRENHEIT
  RH     - RELATIVE HUMIDITY IN PERCENT
  WIND   - DIRECTION AND SPEED IN MPH
  PRES   - MEAN SEA LEVEL PRESSURE IN INCHES OF HG
  WCI    - WIND CHILL INDEX
  VSB    - VISIBILITY IN MILES
  HX     - HEAT INDEX
  TC     - TEMPERATURE IN CELSIUS
  VRB    - VARIABLE WIND DIRECTION
  N/A    - NOT AVAILABLE



USA.gov is the U.S. government's official web portal to all federal, state and local government web resources and services.